Regional Weather Roundup
Issued by NWS

Home | Current Version | Previous Version | Graphics & Text | Print | Product List | Glossary On
Versions: 1 2 3 4 5 6 7 8 9 10 11 12 13 14 15 16 17 18 19 20 21 22 23 24 25 26 27 28 29 30 31 32 33 34 35 36 37 38 39 40 41 42 43 44 45 46 47 48 49 50
000
ASUS45 KBOU 271707
RWRCO

WEATHER ROUNDUP FOR COLORADO
NATIONAL WEATHER SERVICE DENVER/BOULDER CO
1100 AM MDT WED AUG 27 2014

NOTE: "FAIR" INDICATES FEW OR NO CLOUDS BELOW 12000 FEET WITH NO
SIGNIFICANT WEATHER AND/OR OBSTRUCTIONS TO VISIBILITY.

COZ001>005-013-030-031-271800-
...NORTHWEST COLORADO...

CITY           SKY/WX    TMP DP  RH WIND       PRES   REMARKS
CRAIG          MOSUNNY   60  53  77 VRB3      30.29F
HAYDEN         PTSUNNY   61  48  63 CALM      30.30F
MEEKER         CLOUDY    59  52  77 NW5       30.30S
MOUNT WERNER   NOT AVBL
STEAMBOAT SPGS MOSUNNY   58  49  74 CALM      30.32S
WALDEN         CLOUDY    55  45  67 S8G16     30.34F
$$

COZ006>008-011-271800-
...WEST CENTRAL VALLEYS...

CITY           SKY/WX    TMP DP  RH WIND       PRES   REMARKS
GRAND JUNCTION PTSUNNY   68  52  56 SE10      30.23F
MONTROSE       PTSUNNY   65  55  70 N7        30.32F
EAGLE          PTSUNNY   55  50  82 W12G20    30.34R
RIFLE          PTSUNNY   60  55  83 S5        30.29F
DELTA          LGT RAIN  66  56  69 E6        30.29F
NUCLA          MOSUNNY   64  52  63 SW6       30.37S
$$

COZ017>023-064>068-271800-
...SOUTHWEST COLORADO...

CITY           SKY/WX    TMP DP  RH WIND       PRES   REMARKS
DURANGO        SUNNY     61  51  70 VRB5      30.39S
CORTEZ         SUNNY     62  54  74 S3        30.36R
PAGOSA SPRINGS MOSUNNY   58  47  64 S3        30.43F
TELLURIDE      CLOUDY    55  39  54 CALM      30.47S
WOLF CREEK PAS FOG       37  37 100 SW15G22   30.62S VSB 1/4
$$

COZ009-010-012-014-032>034-037-058>063-271800-
...CENTRAL COLORADO...

CITY           SKY/WX    TMP DP  RH WIND       PRES   REMARKS
ASPEN          PTSUNNY   55  48  77 NE8       30.37R
BUENA VISTA    SUNNY     62  46  55 SE7       30.35S
COPPER MTN     PTSUNNY   46  36  66 S10G20    30.56F
BERTHOUD PASS  FOG       37  36  93 NW12G17   30.60S VSB 1/4
COTTONWOOD PAS SUNNY     59  32  36 W14G30    30.45F
GUNNISON       MOSUNNY   57  46  67 CALM      30.41F
KREMMLING      PTSUNNY   61  43  51 SW8       30.33F
LEADVILLE      PTSUNNY   53  37  54 SW7       30.43F
SALIDA         SUNNY     70  42  36 W10G18    30.40S
SUNLIGHT       CLOUDY    46  46 100 CALM      30.53R
WILKERSON PASS NOT AVBL
$$

COZ069>075-271800-
...SAN LUIS VALLEY/SANGRE DE CRISTO MOUNTAINS...

CITY           SKY/WX    TMP DP  RH WIND       PRES   REMARKS
ALAMOSA        SUNNY     65  48  54 SE5       30.36F
LA VETA PASS   NOT AVBL
SAGUACHE       PTSUNNY   61  46  59 S6        30.38F
$$

COZ035-036-038>040-271800-
...NORTHERN COLORADO FRONT RANGE...

CITY           SKY/WX    TMP DP  RH WIND       PRES   REMARKS
DENVER INTL AP PTSUNNY   68  58  70 NW8       30.18F
DMNS CITY PARK   N/A     70  56  60 N7        30.18F
AURORA         PTSUNNY   67  56  68 N2        30.20F
FRONT RANGE AP PTSUNNY   68  59  73 W3        30.19
ERIE MUNI ARPT CLOUDY    65  57  73 NW3       30.18F
BOULDER MUN AP CLOUDY    64  55  72 N6        30.19F
CENTENNIAL     PTSUNNY   67  54  63 N8        30.21S
BROOMFIELD     PTSUNNY   66  55  68 N9        30.21S
FORT COLLINS   CLOUDY    64  57  77 NE7       30.19S
LONGMONT       CLOUDY    67  58  71 CALM      30.20S HAZE
$$

COZ041-046-047-076>085-087-088-271800-
...PIKES PEAK/PALMER DIVIDE AND SOUTHERN FOOTHILLS...

CITY           SKY/WX    TMP DP  RH WIND       PRES   REMARKS
COLO. SPRINGS  MOSUNNY   67  55  65 CALM      30.24F
A. F. ACADEMY  MOSUNNY   64  54  69 SE8       30.24F
ELLICOTT       MOSUNNY   67  55  65 VRB3      30.22F
FALCON         PTSUNNY   66  54  65 CALM      30.28F
FORT CARSON    MOSUNNY   68  55  64 VRB2      30.22S
LIMON          PTSUNNY   69  57  65 S12       30.19S
MONUMENT HILL  MOSUNNY   68  48  49 NW3       30.26S
TRINIDAD       SUNNY     72  54  53 SW5       30.22F
$$

COZ042>045-048>051-090-091-271800-
...NORTHEAST COLORADO...

CITY           SKY/WX    TMP DP  RH WIND       PRES   REMARKS
GREELEY ARPT   CLOUDY    66  55  68 NW3       30.17F
AKRON          CLOUDY    69  60  73 S14G24    30.14F
BURLINGTON     PTSUNNY   72  63  73 S20G26    30.14F
WRAY             N/A     75  62  64 S13       30.12F
STERLING       CLOUDY    77  64  65 S10       30.10F
HOLYOKE        CLOUDY    73  64  73 S12G17    30.13F
FORT MORGAN    CLOUDY    72  60  65 S8        30.15S
$$

COZ086-089-092>099-271800-
...SOUTHEAST COLORADO...

CITY           SKY/WX    TMP DP  RH WIND       PRES   REMARKS
PUEBLO         MOSUNNY   72  58  61 VRB3      30.15F
LA JUNTA       PTSUNNY   73  61  65 SW10      30.13F
LAMAR          CLOUDY    77  62  59 SW12      30.10S
SPRINGFIELD      N/A     70  63  78 S18       30.17R
$$


USA.gov is the U.S. government's official web portal to all federal, state and local government web resources and services.